Location: Clarks Summit,Pa.
(41.5000°N, 75.6000°W)
Time: 17:57:51
(UTC-04:00)

Hubble Space Telescope - Visible Passes

Search period start: 18 June 2019 00:00
Search period end: 28 June 2019 00:00
Orbit: 536 x 540 km, 28.5° (Epoch: 18 June)

Date Brightness Start Highest point End Pass type
(mag) Time Alt. Az. Time Alt. Az. Time Alt. Az.
18 Jun 2.8 04:32:08 11° SSW 04:33:26 12° S 04:35:00 10° SSE visible
19 Jun 2.8 04:22:27 11° SSW 04:22:46 11° S 04:23:55 10° S visible
26 Jun 2.8 21:54:56 10° S 21:56:04 11° S 21:56:04 11° S visible
27 Jun 2.7 21:43:56 10° SSW 21:45:39 12° S 21:46:24 12° SSE visible
